Location: Brede
(50.9167°N, 0.6000°E)
Time: 09:19:14
(UTC+00:00)

Tiros 1 - Pass Details

Date: 28 November 2020
Orbit: 630 x 663 km, 48.4° (Epoch: 16 January)

Event Time Altitude Azimuth Distance (km) Brightness Sun altitude
Rises 16:25:17 0° 237° (WSW) 2,988 13.4 -4.7°
Reaches altitude 10° 16:27:43 10° 231° (SW) 2,076 11.5 -5.0°
Maximum altitude 16:32:15 44° 159° (SSE) 910 8.0 -5.7°
Drops below altitude 10° 16:36:48 10° 88° (E) 2,068 9.2 -6.3°
Enters shadow 16:37:43 - 85° (E) 2,410 9.5 -6.4°
